This demonstration page uses our WeatherBlox Daily Observations layout. Learn more.

Left ArrowRight Arrow

36.19886, -115.1175

Hourly Observations for May 27, 2022

Temp ( °F °C ) Dew Point ( °F °C ) Humidity (%) Winds ( mph kmh ) Pressure ( in mb ) Visibility ( mi km ) Precip ( " mm )
12:53 am 00:53 Clear 87 30.6 32 0 14 14 SSW 16 26 29.79 1009 10 16 0.00 0.00
1:53 am 01:53 Clear 87 30.6 30 -1.1 13 13 SSW 16 26 29.79 1009 10 16 0.00 0.00
2:53 am 02:53 Clear 86 30 31 -0.6 14 14 VRB 6 9 29.80 1009 10 16 0.00 0.00
3:53 am 03:53 Clear 85 29.4 32 0 15 15 S 7 11 29.80 1009 10 16 0.00 0.00
4:53 am 04:53 Clear 83 28.3 32 0 16 16 S 12 19 29.80 1009 10 16 0.00 0.00
5:53 am 05:53 Sunny 83 28.3 30 -1.1 15 15 S 12 19 29.82 1010 10 16 0.00 0.00
6:53 am 06:53 Sunny 82 27.8 33 0.6 17 17 NNE 8 13 29.84 1010 10 16 0.00 0.00
7:53 am 07:53 Sunny 83 28.3 32 0 16 16 SE 8 13 29.85 1011 10 16 0.00 0.00
8:53 am 08:53 Sunny 89 31.7 29 -1.7 11 11 SSE 9 15 29.85 1011 10 16 0.00 0.00
9:53 am 09:53 Sunny 92 33.3 27 -2.8 10 10 S 13 20 29.85 1011 10 16 0.00 0.00
10:53 am 10:53 Sunny 96 35.6 26 -3.3 8 8 ESE 16 26 29.83 1010 10 16 0.00 0.00
11:14 am 11:14 Sunny 97 36.1 25 -3.9 7 7 S 16 26 29.68 1005 10 16 0.00 0.00
11:53 am 11:53 Sunny 99 37.2 23 -5 6 6 S 21 33 29.82 1010 10 16 0.00 0.00
12:53 pm 12:53 Sunny 99 37.2 24 -4.4 7 7 S 16 26 29.80 1009 10 16 0.00 0.00
1:53 pm 13:53 Sunny 100 37.8 23 -5 6 6 S 17 28 29.77 1008 10 16 0.00 0.00
2:53 pm 14:53 Sunny 101 38.3 23 -5 6 6 SSW 20 31 29.75 1007 10 16 0.00 0.00
3:53 pm 15:53 Sunny 101 38.3 23 -5 6 6 SW 21 33 29.73 1007 10 16 0.00 0.00
4:53 pm 16:53 Sunny 98 36.7 22 -5.6 6 6 WSW 13 20 29.72 1007 10 16 0.00 0.00
5:53 pm 17:53 Sunny 96 35.6 23 -5 7 7 WSW 16 26 29.72 1007 10 16 0.00 0.00
6:53 pm 18:53 Sunny 95 35 23 -5 7 7 SW 13 20 29.71 1006 10 16 0.00 0.00
7:53 pm 19:53 Clear 94 34.4 26 -3.3 9 9 SSW 13 20 29.70 1006 10 16 0.00 0.00
8:53 pm 20:53 Clear 93 33.9 26 -3.3 9 9 SSW 8 13 29.70 1006 10 16 0.00 0.00
9:53 pm 21:53 Clear 91 32.8 25 -3.9 9 9 SW 8 13 29.69 1005 10 16 0.00 0.00
10:53 pm 22:53 Clear 89 31.7 27 -2.8 11 11 SW 12 19 29.69 1006 10 16 0.00 0.00
11:53 pm 23:53 Clear 86 30 28 -2.2 12 12 S 7 11 29.68 1005 10 16 0.00 0.00

Powered by AerisWeather